Previsão horária em Cerinza

Hoje, 29 Julho, Quinta-feira

Tempo Temperatura Precipitação Vento Pressão Humidade
00:00 +10°C° 0 mm 1 m/s 547 mmHg 95%
01:00 +9°C° 0 mm 2 m/s 547 mmHg 95%
02:00 +9°C° 0 mm 2 m/s 547 mmHg 95%
03:00 +9°C° 0 mm 2 m/s 547 mmHg 95%
04:00 +8°C° 0 mm 2 m/s 547 mmHg 94%
05:00 +9°C° 0 mm 2 m/s 547 mmHg 93%
06:00 +9°C° 0 mm 2 m/s 547 mmHg 91%
07:00 +10°C° 0 mm 2 m/s 548 mmHg 90%
08:00 +13°C° 0 mm 2 m/s 549 mmHg 79%
09:00 +16°C° 0 mm 2 m/s 550 mmHg 68%
10:00 +18°C° 0 mm 2 m/s 551 mmHg 57%
11:00 +18°C° 0.2 mm 2 m/s 550 mmHg 59%
12:00 +18°C° 0.2 mm 2 m/s 550 mmHg 61%
13:00 +18°C° 0.2 mm 2 m/s 549 mmHg 63%
14:00 +17°C° 0.4 mm 2 m/s 549 mmHg 65%
15:00 +17°C° 0.4 mm 2 m/s 549 mmHg 67%
16:00 +17°C° 0.4 mm 2 m/s 548 mmHg 69%
17:00 +15°C° 0.3 mm 2 m/s 548 mmHg 77%
18:00 +13°C° 0.3 mm 2 m/s 547 mmHg 85%
19:00 +10°C° 0.3 mm 2 m/s 547 mmHg 93%
20:00 +9°C° 0.1 mm 2 m/s 547 mmHg 93%
21:00 +9°C° 0.1 mm 2 m/s 548 mmHg 94%
22:00 +9°C° 0.1 mm 2 m/s 548 mmHg 94%
23:00 +8°C° 0 mm 2 m/s 547 mmHg 94%

Amanhã, 30 Julho, Sexta-feira

Tempo Temperatura Precipitação Vento Pressão Humidade
00:00 +8°C° 0 mm 2 m/s 547 mmHg 93%
01:00 +8°C° 0 mm 2 m/s 547 mmHg 93%
02:00 +8°C° 0 mm 2 m/s 547 mmHg 93%
03:00 +8°C° 0 mm 2 m/s 547 mmHg 93%
04:00 +8°C° 0 mm 2 m/s 547 mmHg 93%
05:00 +9°C° 0.1 mm 1 m/s 547 mmHg 92%
06:00 +10°C° 0.1 mm 1 m/s 548 mmHg 92%
07:00 +11°C° 0.1 mm 1 m/s 548 mmHg 91%
08:00 +12°C° 0.1 mm 1 m/s 549 mmHg 84%
09:00 +14°C° 0.1 mm 1 m/s 550 mmHg 77%
10:00 +16°C° 0.1 mm 1 m/s 550 mmHg 69%
11:00 +18°C° 0.3 mm 1 m/s 550 mmHg 66%
12:00 +17°C° 0.3 mm 2 m/s 550 mmHg 63%
13:00 +18°C° 0.3 mm 2 m/s 550 mmHg 60%
14:00 +18°C° 0.5 mm 1 m/s 549 mmHg 66%
15:00 +16°C° 0.5 mm 1 m/s 549 mmHg 72%
16:00 +16°C° 0.5 mm 1 m/s 548 mmHg 79%
17:00 +14°C° 0.5 mm 1 m/s 548 mmHg 84%
18:00 +13°C° 0.5 mm 1 m/s 548 mmHg 89%
19:00 +12°C° 0.5 mm 2 m/s 548 mmHg 94%
20:00 +12°C° 0.1 mm 1 m/s 548 mmHg 94%
21:00 +11°C° 0.1 mm 1 m/s 549 mmHg 94%
22:00 +11°C° 0.1 mm 1 m/s 549 mmHg 94%
23:00 +11°C° 0 mm 1 m/s 548 mmHg 94%

Depois de amanhã, 31 Julho, Sábado

Tempo Temperatura Precipitação Vento Pressão Humidade
00:00 +10°C° 0 mm 1 m/s 548 mmHg 95%
01:00 +10°C° 0 mm 1 m/s 547 mmHg 95%
02:00 +10°C° 0 mm 1 m/s 547 mmHg 95%
03:00 +10°C° 0 mm 1 m/s 547 mmHg 94%
04:00 +10°C° 0 mm 1 m/s 547 mmHg 94%
05:00 +10°C° 0 mm 1 m/s 548 mmHg 92%
06:00 +11°C° 0 mm 1 m/s 548 mmHg 91%
07:00 +12°C° 0 mm 1 m/s 549 mmHg 90%
08:00 +13°C° 0.1 mm 1 m/s 549 mmHg 83%
09:00 +14°C° 0.1 mm 1 m/s 550 mmHg 77%
10:00 +16°C° 0.1 mm 1 m/s 550 mmHg 71%
11:00 +16°C° 0.3 mm 1 m/s 550 mmHg 69%
12:00 +18°C° 0.3 mm 1 m/s 550 mmHg 66%
13:00 +19°C° 0.3 mm 1 m/s 550 mmHg 64%
14:00 +18°C° 0.7 mm 1 m/s 550 mmHg 68%
15:00 +18°C° 0.7 mm 1 m/s 549 mmHg 73%
16:00 +16°C° 0.7 mm 1 m/s 549 mmHg 77%
17:00 +14°C° 0.5 mm 1 m/s 548 mmHg 82%
18:00 +13°C° 0.5 mm 2 m/s 548 mmHg 87%
19:00 +10°C° 0.5 mm 2 m/s 548 mmHg 92%
20:00 +10°C° 0.1 mm 2 m/s 548 mmHg 92%
21:00 +10°C° 0.1 mm 2 m/s 548 mmHg 92%
22:00 +9°C° 0.1 mm 2 m/s 549 mmHg 92%
23:00 +9°C° 0 mm 2 m/s 548 mmHg 93%

1 Agosto, Domingo

Tempo Temperatura Precipitação Vento Pressão Humidade
00:00 +9°C° 0 mm 2 m/s 548 mmHg 94%
01:00 +8°C° 0 mm 2 m/s 548 mmHg 95%
02:00 +8°C° 0 mm 2 m/s 548 mmHg 95%
03:00 +8°C° 0 mm 2 m/s 548 mmHg 95%
04:00 +8°C° 0 mm 2 m/s 547 mmHg 95%
05:00 +9°C° 0 mm 2 m/s 548 mmHg 93%
06:00 +10°C° 0 mm 2 m/s 549 mmHg 91%
07:00 +10°C° 0 mm 2 m/s 549 mmHg 90%
08:00 +13°C° 0 mm 2 m/s 550 mmHg 82%
09:00 +15°C° 0 mm 2 m/s 551 mmHg 75%
10:00 +16°C° 0 mm 2 m/s 551 mmHg 67%
11:00 +17°C° 0.1 mm 2 m/s 551 mmHg 65%
12:00 +17°C° 0.1 mm 2 m/s 551 mmHg 63%
13:00 +18°C° 0.1 mm 2 m/s 551 mmHg 61%
14:00 +17°C° 0.2 mm 2 m/s 550 mmHg 64%
15:00 +17°C° 0.2 mm 2 m/s 550 mmHg 66%
16:00 +16°C° 0.2 mm 2 m/s 550 mmHg 69%
17:00 +15°C° 0.1 mm 2 m/s 549 mmHg 77%
18:00 +13°C° 0.1 mm 2 m/s 549 mmHg 84%
19:00 +10°C° 0.1 mm 2 m/s 549 mmHg 92%
20:00 +10°C° 0.1 mm 2 m/s 549 mmHg 92%
21:00 +9°C° 0.1 mm 2 m/s 549 mmHg 92%
22:00 +9°C° 0.1 mm 2 m/s 549 mmHg 92%
23:00 +9°C° 0 mm 2 m/s 549 mmHg 92%

2 Agosto, Segunda-feira

Tempo Temperatura Precipitação Vento Pressão Humidade
00:00 +9°C° 0 mm 2 m/s 549 mmHg 92%
01:00 +9°C° 0 mm 2 m/s 548 mmHg 92%
02:00 +9°C° 0 mm 2 m/s 548 mmHg 93%
03:00 +9°C° 0 mm 2 m/s 548 mmHg 93%
04:00 +8°C° 0 mm 2 m/s 548 mmHg 94%
05:00 +9°C° 0.1 mm 2 m/s 548 mmHg 92%
06:00 +10°C° 0.1 mm 1 m/s 548 mmHg 91%
07:00 +11°C° 0.1 mm 1 m/s 549 mmHg 90%
08:00 +11°C° 0.4 mm 1 m/s 549 mmHg 89%
09:00 +12°C° 0.4 mm 1 m/s 549 mmHg 88%
10:00 +12°C° 0.4 mm 1 m/s 550 mmHg 86%
11:00 +12°C° 0.5 mm 1 m/s 550 mmHg 85%
12:00 +13°C° 0.5 mm 1 m/s 549 mmHg 84%
13:00 +13°C° 0.5 mm 1 m/s 549 mmHg 82%
14:00 +12°C° 0.7 mm 1 m/s 549 mmHg 85%
15:00 +12°C° 0.7 mm 1 m/s 548 mmHg 88%
16:00 +10°C° 0.7 mm 2 m/s 548 mmHg 91%
17:00 +11°C° 0.2 mm 1 m/s 548 mmHg 92%
18:00 +11°C° 0.2 mm 1 m/s 548 mmHg 92%
19:00 +11°C° 0.2 mm 1 m/s 549 mmHg 92%
20:00 +11°C° 0.3 mm 1 m/s 549 mmHg 92%
21:00 +11°C° 0.3 mm 1 m/s 549 mmHg 93%
22:00 +11°C° 0.3 mm 1 m/s 549 mmHg 93%
23:00 +10°C° 0.2 mm 1 m/s 549 mmHg 93%

3 Agosto, Terça-feira

Tempo Temperatura Precipitação Vento Pressão Humidade
00:00 +9°C° 0.2 mm 2 m/s 549 mmHg 93%
01:00 +9°C° 0.2 mm 2 m/s 548 mmHg 92%
02:00 +9°C° 0 mm 2 m/s 548 mmHg 92%
03:00 +10°C° 0 mm 1 m/s 548 mmHg 92%
04:00 +10°C° 0 mm 1 m/s 548 mmHg 92%
05:00 +10°C° 0 mm 1 m/s 548 mmHg 91%
06:00 +10°C° 0 mm 1 m/s 548 mmHg 91%
07:00 +10°C° 0 mm 1 m/s 549 mmHg 90%
08:00 +11°C° 0.1 mm 1 m/s 549 mmHg 87%
09:00 +12°C° 0.1 mm 1 m/s 550 mmHg 84%
10:00 +13°C° 0.1 mm 1 m/s 550 mmHg 81%
11:00 +13°C° 0.2 mm 1 m/s 550 mmHg 83%
12:00 +12°C° 0.2 mm 1 m/s 549 mmHg 84%
13:00 +12°C° 0.2 mm 1 m/s 549 mmHg 86%
14:00 +12°C° 0.2 mm 1 m/s 549 mmHg 87%
15:00 +12°C° 0.2 mm 1 m/s 548 mmHg 87%
16:00 +12°C° 0.2 mm 1 m/s 548 mmHg 88%
17:00 +11°C° 0.1 mm 1 m/s 548 mmHg 89%
18:00 +11°C° 0.1 mm 1 m/s 548 mmHg 91%
19:00 +10°C° 0.1 mm 1 m/s 548 mmHg 92%
20:00 +10°C° 0 mm 1 m/s 549 mmHg 92%
21:00 +10°C° 0 mm 1 m/s 549 mmHg 92%
22:00 +10°C° 0 mm 1 m/s 549 mmHg 91%
23:00 +10°C° 0 mm 1 m/s 549 mmHg 92%
Mostrar mais

Necessitamos do seu Consentimento

A Meteoprog e os seus Fornecedores de Serviços podem armazenar e aceder a dados pessoais como cookies, identificadores do dispositivo ou outras tecnologias semelhantes existentes no seu dispositivo e processar estes dados para personalizar conteúdos e anúncios, assim como funcionalidades nas redes sociais e análise de tráfego.

  • Armazenar e/ou aceder a informações no seu dispositivo

    Os cookies, identificadores do dispositivo ou outras informações podem ser armazenados ou acedidos no seu dispositivo, para os fins acima indicados.

  • Anúncios e conteúdos personalizados, medição de anúncios e conteúdos, dados sobre o público-alvo e desenvolvimento de produtos

    Os anúncios e os conteúdos podem ser personalizados com base num perfil. Podem ser adicionados dados adicionais para uma maior personalização dos anúncios e dos conteúdos. A eficácia dos anúncios e dos conteúdos pode ser medida. Podem ser obtidas informações sobre o público que visualizou os anúncios e os conteúdos. Estes dados podem ser usados para desenvolver ou melhorar sistemas, softwares ou a experiência do utilizador.

Ao clicar em "Eu concordo”, permitirá o uso de cookies, identificadores do dispositivo e web beacons mencionados ou outras tecnologias semelhantes. As configurações do navegador do seu dispositivo podem ser alteradas.

Para certos fins, podem ser invocados interesses legítimos ao invés de consentimento. Pode ler mais informação sobre este assunto na nossa Política de Privacidade e Cookies.